Regional Weather Roundup
Issued by NWS

Home | Current Version | Previous Version | Text Only | Print | Product List | Glossary On
Versions: 1 2 3 4 5 6 7 8 9 10 11 12 13 14 15 16 17 18 19 20 21 22 23 24 25 26 27 28 29 30 31 32 33 34 35 36 37 38 39 40 41 42 43 44 45 46 47 48 49 50
000
ASUS46 KSTO 060904
RWRCA

NORTHERN AND CENTRAL CA REGIONAL WEATHER ROUNDUP
NATIONAL WEATHER SERVICE SACRAMENTO CA
100 AM PST TUE DEC 06 2016

NOTE: FAIR INDICATES FEW OR NO CLOUDS BELOW 12,000 FEET WITH NO
SIGNIFICANT WEATHER AND/OR OBSTRUCTIONS TO VISIBILITY.

CAZ001-003-061000-
NORTHWEST AREA

CITY           SKY/WX    TMP DP  RH WIND       PRES   REMARKS
CRESCENT CITY  CLOUDY    44  41  89 CALM      30.09F
UKIAH          CLEAR     34  32  92 CALM      30.09S
$$

CAZ006-505>513-061000-
BAY AREA

CITY           SKY/WX    TMP DP  RH WIND       PRES   REMARKS
SANTA ROSA     PTCLDY    39  33  79 N6        30.05F WCI  35
SAN RAFAEL     N/A       46  MM  MM MISG
NAPA           MOCLDY    43  39  86 CALM      30.06S
CONCORD        CLOUDY    45  39  79 W3        30.06S
OAKLAND CITY   N/A       51  MM  MM MISG
OAKLAND        MOCLDY    49  40  71 NW6       30.06S
SAN FRAN CITY  N/A       48  MM  71 MISG
SAN FRAN ARPT  MOCLDY    50  38  63 W6        30.05F
LIVERMORE      MOCLDY    44  41  89 CALM      30.03F FOG
HAYWARD        MOCLDY    49  41  74 W5        30.04F
REDWOOD CITY   N/A       MM  MM  MM MISG
MOFFETT ARPT   CLOUDY    48  41  76 CALM      30.06S
SAN JOSE ARPT  CLOUDY    50  42  74 W5        30.05F
$$
CAZ034-037-514>518-061000-
CENTRAL COAST

CITY           SKY/WX    TMP DP  RH WIND       PRES   REMARKS
WATSONVILLE    CLOUDY    45  44  97 CALM      30.05F
SALINAS        CLOUDY    50  46  86 SW6       30.04F
MONTEREY       PTCLDY    49  45  86 S6        30.05F
SAN LUIS OBISP CLOUDY    52  45  77 N7        30.00S
SANTA MARIA    MOCLDY    44  44 100 CALM      30.00S
$$
CAZ015-016-061000-
NORTHERN SACRAMENTO VALLEY

CITY           SKY/WX    TMP DP  RH WIND       PRES   REMARKS
REDDING        CLEAR     31  29  92 N3        30.03F
RED BLUFF      CLEAR     37  29  72 N5        30.04F WCI  33
OROVILLE       PTCLDY    36  34  92 E5        30.05F FOG     WCI  32
$$
CAZ016>018-061000-
SOUTHERN SACRAMENTO VALLEY

CITY           SKY/WX    TMP DP  RH WIND       PRES   REMARKS
AUBURN         CLEAR     37  37 100 E3        30.03S
LINCOLN          N/A     32  32 100 E3        30.04S VSB<1/4
MARYSVILLE     FOG       34  33  96 CALM      30.05F VSB 1/4
SAC INTL ARPT  PTCLDY    39  39 100 N3        30.04F
MATHER AIRPORT NOT AVBL
DOWNTOWN SAC   N/A       43  MM  MM MISG
SAC EXEC ARPT  PTCLDY    42  40  92 CALM      30.05F
VACAVILLE      MOCLDY    41  40  96 CALM      30.06S
TRAVIS AFB     CLOUDY    42  41  97 CALM      30.04R FOG
$$
CAZ019>021-061000-
SAN JOAQUIN VALLEY

CITY           SKY/WX    TMP DP  RH WIND       PRES   REMARKS
STOCKTON       CLOUDY    43  43 100 CALM      30.04S FOG
MODESTO        CLOUDY    45  42  89 CALM      30.03F FOG
MERCED         CLOUDY    43  41  93 CALM      30.04S FOG
LEMOORE        CLOUDY    43  40  89 CALM      30.05S FOG
FRESNO         FOG       44  43  96 CALM      30.05S VSB 1/8
HANFORD        FOG       42  42 100 NW3       30.05R VSB 1/4
PORTERVILLE    CLOUDY    42  38  85 CALM      30.05S FOG
BAKERSFIELD    CLOUDY    49  39  68 CALM      30.02F
$$
CAZ011-012-071-061000-
NORTHERN MOUNTAINS

CITY           SKY/WX    TMP DP  RH WIND       PRES   REMARKS
YREKA          CLOUDY    30  26  85 E3        29.97F
MOUNT SHASTA   MOCLDY    28  22  78 CALM      29.94F
ALTURAS        PTCLDY    18  15  88 E3        29.92F
$$
CAZ011-012-071-061000-
SIERRA NEVADA MTNS

CITY           SKY/WX    TMP DP  RH WIND       PRES   REMARKS
BLUE CANYON    CLEAR     31  25  78 SE3       29.97F
TRUCKEE        CLEAR     14   7  73 S3        29.94F
TAHOE VLY ARPT CLOUDY    33  -2  22 S9        29.94F WCI  25
MAMMOTH LAKES  FAIR      37   6  28 SW28G40   29.92S WCI  25
$$




USA.gov is the U.S. government's official web portal to all federal, state and local government web resources and services.